Weather History for Estherville, IA

Change the Weather History Date:

Tuesday, August 13, 2013

  Actual Average Record
Temperature  
Mean Temperature 63 °F 70 °F  
Max Temperature 74 °F 80 °F 99 °F (1965)
Min Temperature 51 °F 59 °F 40 °F (1964)
Degree Days  
Heating Degree Days 2 1  
Month to date heating degree days 7 2  
Since 1 June heating degree days 83 52  
Since 1 July heating degree days 29 11  
Cooling Degree Days 0 5  
Month to date cooling degree days 21 74  
Year to date cooling degree days 435 466  
Since 1 June cooling degree days 402 430  
Growing Degree Days 13 (Base 50)    
Moisture  
Dew Point 55 °F    
Average Humidity 75    
Maximum Humidity 100    
Minimum Humidity 49    
Precipitation  
Precipitation 0.00 in 0.14 in 1.43 in (1980)
Month to date precipitation 1.25 1.86  
Sea Level Pressure  
Sea Level Pressure 30.15 in    
Wind  
Wind Speed 6 mph (NNE)    
Max Wind Speed 14 mph    
Max Gust Speed 17 mph    
Visibility 10 miles    
Events      
T = Trace of Precipitation, MM = Missing Value Source: NWS Daily Summary

Daily Weather History Graph

Daily Weather History Graph

Search for Another Location

Airport:

Trip Planner

Search our weather history database for the weather conditions in past years. The results will help you decide how hot, cold, wet, or windy it might be!

Date:

Astronomy

Aug. 13, 2013 Rise Set
Actual Time 6:22 AM CDT 8:24 PM CDT
Civil Twilight 5:51 AM CDT 8:55 PM CDT
Nautical Twilight 5:12 AM CDT 9:33 PM CDT
Astronomical Twilight 4:30 AM CDT 10:15 PM CDT
Moon 1:31 PM CDT (8/13) 11:45 PM CDT (8/13)
Length of Visible Light 15h 04m
Length of Day
14h 02m
Waxing Crescent, 42% of the Moon is Illuminated
Aug 13
Waxing Crescent
Aug 14
First Quarter
Aug 20
Full
Aug 28
Last Quarter
Sep 5
New

Hourly Weather History & Observations

Time (CDT) Temp. Dew Point Humidity Pressure Visibility Wind Dir Wind Speed Gust Speed Precip Events Conditions
12:52 AM 57.9 °F 55.0 °F 90% 30.09 in 10.0 mi NW 6.9 mph - N/A   Clear
1:52 AM 57.9 °F 55.9 °F 93% 30.09 in 10.0 mi NW 6.9 mph - N/A   Clear
2:52 AM 57.0 °F 55.0 °F 93% 30.09 in 10.0 mi NW 5.8 mph - N/A   Clear
3:52 AM 57.0 °F 55.0 °F 93% 30.10 in 10.0 mi NNW 5.8 mph - N/A   Clear
4:52 AM 55.0 °F 54.0 °F 96% 30.11 in 10.0 mi NNW 4.6 mph - N/A   Clear
5:52 AM 53.1 °F 53.1 °F 100% 30.11 in 8.0 mi NW 4.6 mph - N/A   Clear
6:52 AM 54.0 °F 54.0 °F 100% 30.13 in 8.0 mi NNW 4.6 mph - N/A   Clear
7:52 AM 57.9 °F 57.0 °F 97% 30.14 in 8.0 mi North 5.8 mph - N/A   Clear
8:52 AM 62.1 °F 59.0 °F 90% 30.17 in 8.0 mi North 3.5 mph - N/A   Clear
9:52 AM 66.0 °F 60.1 °F 81% 30.17 in 8.0 mi North 5.8 mph - N/A   Clear
10:52 AM 69.1 °F 61.0 °F 75% 30.19 in 9.0 mi NNE 10.4 mph - N/A   Clear
11:52 AM 70.0 °F 59.0 °F 68% 30.19 in 9.0 mi NNE 12.7 mph - N/A   Partly Cloudy
12:52 PM 72.0 °F 55.9 °F 57% 30.19 in 10.0 mi NNE 10.4 mph - N/A   Scattered Clouds
1:52 PM 70.0 °F 55.0 °F 59% 30.19 in 10.0 mi NE 8.1 mph - N/A   Mostly Cloudy
2:52 PM 73.0 °F 53.1 °F 49% 30.18 in 10.0 mi Variable 4.6 mph - N/A   Partly Cloudy
3:52 PM 73.0 °F 54.0 °F 51% 30.17 in 10.0 mi ENE 9.2 mph - N/A   Scattered Clouds
4:52 PM 72.0 °F 51.1 °F 48% 30.17 in 10.0 mi ENE 8.1 mph - N/A   Partly Cloudy
5:52 PM 72.0 °F 51.1 °F 48% 30.16 in 10.0 mi ENE 8.1 mph - N/A   Clear
6:52 PM 71.1 °F 52.0 °F 51% 30.15 in 10.0 mi ENE 5.8 mph - N/A   Clear
7:52 PM 66.0 °F 57.0 °F 73% 30.16 in 10.0 mi NE 3.5 mph - N/A   Clear
8:52 PM 60.1 °F 55.9 °F 86% 30.17 in 10.0 mi NE 3.5 mph - N/A   Clear
9:52 PM 57.0 °F 55.0 °F 93% 30.19 in 10.0 mi Calm Calm - N/A   Clear
10:52 PM 54.0 °F 53.1 °F 97% 30.19 in 10.0 mi NE 3.5 mph - N/A   Clear
11:52 PM 53.1 °F 51.1 °F 93% 30.20 in 10.0 mi Calm Calm - N/A   Clear